Погода в Екатеринбурге

Россия / Свердловская область     56°50′16″N   60°35′50″E
темп.,
°C
ветер,
м/с
пор.,
м/с
влажн.,
%
обл.,
%
осадки,
мм/ч
давл.,
гПа
погр.,
м
2 декабря, чт
чт223:00+2ю61487100 0.4 993744
02:00+2ю41288100 0.0 993446
05:00+2ююв41089100 0.0 992344
08:00+2ююз31091100 0.1 992465
11:00+1зюз41097100 0.4 995833
14:00+1з597992 0.2 9971062
17:00−3з5127760 0.2 1000906
20:00−4з51277100 0.0 10021035
3 декабря, пт
пт323:00−4зюз51275100 0.0 10031106
02:00−3юз5118099 0.0 10041005
05:00−4зюз51281100 0.0 10041021
08:00−4зюз61274100 0.1 10051024
11:00−4зюз61275100 0.1 10071030
14:00−4зюз61371100 0.0 10071136
17:00−4зюз51278100 0.0 10091023
20:00−4зюз5138187 0.0 1010864
4 декабря, сб
сб423:00−3зюз5138471 0.0 1012742
02:00−3зюз4128877 0.0 1015597
05:00−4юз269485 0.0 1017153
08:00−1юз31088100 0.1 1018465
11:00−1ю31198100 0.1 1018549
14:00+1ююз51497100 0.0 1016830
17:00+2юз51787100 0.0 1015745
20:00+2юз61877100 0.0 1014807
5 декабря, вс
вс523:00+2юз61776100 0.0 1013918
02:00+2юз61674100 0.0 10121015
05:00+1юз51384100 0.0 1011916
08:000юз41291100 0.1 1010837
11:000юз41187100 0.3 1010801
14:000зюз488699 0.1 1011755
17:00−2з388698 0.1 1013449
20:00−3з4879100 0.1 1014962
6 декабря, пн
пн623:00−4з3777100 0.1 1015985
02:00−5зюз387889 0.0 1016813
05:00−6зюз498333 0.0 1017611
08:00−8зсз4117884 0.1 1018793
11:00−11зсз4772100 0.1 1021791
14:00−12сз5765100 0.0 1023984
17:00−13сз4770100 0.0 1025899
20:00−14зсз487539 0.0 1027578